Regional Weather Roundup
Issued by NWS

Home | Current Version | Previous Version | Text Only | Print | Product List | Glossary Off
Versions: 1 2 3 4 5 6 7 8 9 10 11 12 13 14 15 16 17 18 19 20 21 22 23 24 25 26 27 28 29 30 31 32 33 34 35 36 37 38 39 40 41 42 43 44 45 46 47 48 49 50

000
ASUS43 KOAX 010002
RWRNE

WEATHER ROUNDUP FOR NEBRASKA
NATIONAL WEATHER SERVICE OMAHA NE
700 PM CDT SAT APR 30 2016

NOTES: SATELLITE DATA IS BEING USED TO AUGMENT CLOUD COVER ABOVE
       12000 FEET.
       "FAIR" INDICATES FEW OR NO CLOUDS BELOW 12,000 FEET WITH NO
       SIGNIFICANT WEATHER AND/OR OBSTRUCTIONS TO VISIBILITY.

  * THESE STATIONS DO NOT REPORT WEATHER SUCH AS RAIN...SNOW OR FOG.

NEZ001>004-019>022-054>056-010100-
NEBRASKA PANHANDLE

CITY           SKY/WX    TMP DP  RH WIND       PRES   REMARKS
SCOTTSBLUFF    LGT RAIN  38  50 100 NW14      30.09R WCI  30
6HR MIN TEMP:  37; 6HR MAX TEMP:  39; 6HR PCP:  0.14;

ALLIANCE       LGT SNOW  34  32  92 N17       30.03R FOG     WCI  23
6HR MIN TEMP:  33; 6HR MAX TEMP:  34; 6HR PCP:  0.64;

CHADRON        CLOUDY    46  33  60 N18G26    30.07R
6HR MIN TEMP:  41; 6HR MAX TEMP:  46; 6HR PCP:  0.03;

KIMBALL        LGT SNOW  33  33  99 N14       30.06R VSB 1   WCI  24
SIDNEY         SNOW      33  32  96 N22       30.03R VSB 1/2 WCI  21
6HR MIN TEMP:  33; 6HR MAX TEMP:  35; 6HR PCP:  0.01;

$$

NEZ057>060-069>072-079>082-010100-
SOUTHWEST NEBRASKA

CITY           SKY/WX    TMP DP  RH WIND       PRES   REMARKS
NORTH PLATTE   CLOUDY    36  33  89 N18G28    29.90R WCI  26
6HR MIN TEMP:  34; 6HR MAX TEMP:  38; 6HR PCP:  0.08;

IMPERIAL       CLOUDY    36  34  92 N17       29.94R WCI  26
6HR MIN TEMP:  34; 6HR MAX TEMP:  37; 6HR PCP:  0.08;

MCCOOK         CLOUDY    39  35  86 N16       29.89R WCI  30
6HR MIN TEMP:  39; 6HR MAX TEMP:  44; 6HR PCP: TRACE;

$$

NEZ005>010-023>029-035>040-094-010100-
NORTH CENTRAL NEBRASKA

CITY           SKY/WX    TMP DP  RH WIND       PRES   REMARKS
VALENTINE      LGT RAIN  38  35  89 NE18G29   30.01R WCI  28
6HR MIN TEMP:  38; 6HR MAX TEMP:  41; 6HR PCP:  0.46;

AINSWORTH      LGT RAIN  39  38  95 N17G31    29.95R WCI  30
BROKEN BOW     RAIN      38  36  92 N16       29.86R FOG     WCI  29
6HR MIN TEMP:  38; 6HR MAX TEMP:  41; 6HR PCP:  0.25;

ORD            LGT RAIN  44  42  93 N13       29.84R
6HR MIN TEMP:  42; 6HR MAX TEMP:  45; 6HR PCP:  0.09;

$$

NEZ041-046>049-061>064-073>077-083>087-010100-
SOUTH CENTRAL NEBRASKA

CITY           SKY/WX    TMP DP  RH WIND       PRES   REMARKS
GRAND ISLAND   CLOUDY    47  44  90 N10       29.81R
6HR MIN TEMP:  44; 6HR MAX TEMP:  47; 6HR PCP:  0.04;

AURORA         CLOUDY    49  47  93 N10       29.79S
HASTINGS       CLOUDY    47  43  86 NW12      29.80R
6HR MIN TEMP:  45; 6HR MAX TEMP:  48; 6HR PCP:  0.01;

KEARNEY *      CLOUDY    45  39  81 N13       29.83R
YORK           RAIN      48  48 100 N5        29.79R VSB 3/4
$$

NEZ011>018-030>034-042>045-010100-
NORTHEAST NEBRASKA

CITY           SKY/WX    TMP DP  RH WIND       PRES   REMARKS
NORFOLK        LGT RAIN  45  43  93 NE15G26   29.84R
6HR MIN TEMP:  44; 6HR MAX TEMP:  46; 6HR PCP:  0.08;

ALBION         DRIZZLE   46  44  94 NE12      29.83R
BLAIR          DRIZZLE   48  47  96 NE13      29.80S
COLUMBUS *     CLOUDY    46  39  76 NE15      29.82R
FREMONT        LGT RAIN  48  48  98 NE9       29.81S
TEKAMAH        CLOUDY    48  46  93 NE10      29.83R
6HR MIN TEMP:  47; 6HR MAX TEMP:  49; 6HR PCP:  0.03;

$$

NEZ050>053-065>068-078-088>093-010100-
SOUTHEAST NEBRASKA

CITY           SKY/WX    TMP DP  RH WIND       PRES   REMARKS
LINCOLN        CLOUDY    52  49  89 NE10      29.79R
6HR MIN TEMP:  51; 6HR MAX TEMP:  53; 6HR PCP:  0.10;

OMAHA EPPLEY   CLOUDY    50  48  93 E8        29.80R FOG
6HR MIN TEMP:  49; 6HR MAX TEMP:  51; 6HR PCP: TRACE;

FALLS CITY     CLOUDY    60  48  64 W8        29.76R
6HR MIN TEMP:  57; 6HR MAX TEMP:  64;

$$

NEZ044-045-051>053-067-010100-
OMAHA AREA

CITY           SKY/WX    TMP DP  RH WIND       PRES   REMARKS
OMAHA EPPLEY   CLOUDY    50  48  93 E8        29.80R FOG
6HR MIN TEMP:  49; 6HR MAX TEMP:  51; 6HR PCP: TRACE;

BLAIR          DRIZZLE   48  47  96 NE13      29.80S
FREMONT        LGT RAIN  48  48  98 NE9       29.81S
OFFUTT AFB     CLOUDY    51  51  99 NE8       29.78R
$$




USA.gov is the U.S. government's official web portal to all federal, state and local government web resources and services.